Markham, Ontario

4:13 AM EDT on May 27, 2017 (GMT -0400)
Markham

Weather History for CYKZ - November, 2011

Change the Weather History Date:

Saturday, November 26, 2011

  Actual Average Record
Temperature  
Mean Temperature 50 °F -  
Max Temperature 53 °F 39 °F 57 °F (2015)
Min Temperature 46 °F 27 °F 19 °F (1996)
Degree Days  
Heating Degree Days 16    
Moisture  
Dew Point 40 °F    
Average Humidity 66    
Maximum Humidity 76    
Minimum Humidity 50    
Precipitation  
Precipitation 0.00 in - - ()
Sea Level Pressure  
Sea Level Pressure 30.04 in    
Wind  
Wind Speed 5 mph ()    
Max Wind Speed 13 mph    
Max Gust Speed 18 mph    
Visibility 15.0 miles    
Events      
Averages and records for this station are not official NWS values.
T = Trace of Precipitation, MM = Missing Value Source: Averaged Metar Reports

Daily Weather History Graph

Daily Weather History Graph

Search for Another Location

Airport or City:

Trip Planner

Search our weather history database for the weather conditions in past years. The results will help you decide how hot, cold, wet, or windy it might be!

Date:

Astronomy

Nov. 26, 2011 Rise Set
Actual Time 7:25 AM EST 4:43 PM EST
Civil Twilight 6:53 AM EST 5:15 PM EST
Nautical Twilight 6:18 AM EST 5:51 PM EST
Astronomical Twilight 5:43 AM EST 6:25 PM EST
Moon 8:57 AM EST (11/26) 6:10 PM EST (11/26)
Length of Visible Light 10h 21m
Length of Day
9h 17m
Waxing Crescent, 3% of the Moon is Illuminated
Nov 26
Waxing Crescent
Dec 2
First Quarter
Dec 10
Full
Dec 17
Last Quarter
Dec 24
New

Hourly Weather History & Observations

Time (EST) Temp. Windchill Dew Point Humidity Pressure Visibility Wind Dir Wind Speed Gust Speed Precip Events Conditions
12:00 AM 51.8 °F - 39.2 °F 62% 30.02 in 15.0 mi WSW 5.8 mph - N/A   Mostly Cloudy
1:00 AM 50 °F - 40 °F 58% 30.04 in 15 mi West 4.6 mph - -   Mostly Cloudy
1:00 AM 50.0 °F - 39.2 °F 66% 30.04 in 15.0 mi West 4.6 mph - N/A   Mostly Cloudy
2:00 AM 46.4 °F - 39.2 °F 76% 30.04 in 15.0 mi SSW 2.3 mph - N/A   Mostly Cloudy
3:00 AM 48.2 °F - 39.2 °F 71% 30.04 in 15.0 mi SW 3.5 mph - N/A   Mostly Cloudy
4:00 AM 50.0 °F - 39.2 °F 66% 30.04 in 15.0 mi SW 4.6 mph - N/A   Overcast
5:00 AM 50.0 °F - 39.2 °F 66% 30.06 in 15.0 mi SSW 6.9 mph - N/A   Mostly Cloudy
6:00 AM 46.4 °F 45.2 °F 39.2 °F 76% 30.06 in 15.0 mi SSW 3.5 mph - N/A   Mostly Cloudy
7:00 AM 47 °F - 39 °F 66% 30.08 in 15 mi Calm Calm - -   Mostly Cloudy
7:00 AM 46.4 °F - 39.2 °F 76% 30.08 in 15.0 mi Calm Calm - N/A   Mostly Cloudy
8:00 AM 46.4 °F 45.2 °F 39.2 °F 76% 30.09 in 15.0 mi South 3.5 mph - N/A   Overcast
9:00 AM 48.2 °F - 39.2 °F 71% 30.09 in 15.0 mi SSW 2.3 mph - N/A   Overcast
10:00 AM 50.0 °F - 39.2 °F 66% 30.09 in 15.0 mi South 4.6 mph - N/A   Overcast
11:00 AM 50.0 °F - 39.2 °F 66% 30.09 in 15.0 mi South 5.8 mph - N/A   Overcast
12:00 PM 51.8 °F - 39.2 °F 62% 30.06 in 15.0 mi South 8.1 mph - N/A   Overcast
1:00 PM 53 °F - 40 °F 50% 30.04 in 15 mi South 11.5 mph - -   Overcast
1:00 PM 51.8 °F - 39.2 °F 62% 30.04 in 15.0 mi South 11.5 mph - N/A   Overcast
2:00 PM 53.6 °F - 39.2 °F 58% 30.02 in 15.0 mi South 8.1 mph - N/A   Overcast
4:00 PM 51.8 °F - 39.2 °F 62% 30.02 in 15.0 mi South 8.1 mph - N/A   Overcast
5:00 PM 53.6 °F - 41.0 °F 62% 30.03 in 15.0 mi South 12.7 mph - N/A   Overcast
7:00 PM 53 °F - 42 °F 56% 30.03 in 15 mi South 6.9 mph - -   Scattered Clouds
7:00 PM 51.8 °F - 41.0 °F 67% 30.03 in 15.0 mi South 6.9 mph - N/A   Mostly Cloudy
8:00 PM 51.8 °F - 42.8 °F 71% 30.02 in 15.0 mi South 6.9 mph - N/A   Overcast
9:00 PM 53.6 °F - 42.8 °F 67% 30.01 in 15.0 mi South 8.1 mph - N/A   Overcast
10:00 PM 53.6 °F - 42.8 °F 67% 29.99 in 15.0 mi SSW 10.4 mph 18.4 mph N/A   Overcast
11:00 PM 53.6 °F - 42.8 °F 67% 29.99 in 15.0 mi SSW 11.5 mph 17.3 mph N/A   Overcast